"Pseudo-MPEC" for CD8FW32

Created 2025 Apr 29 12:31:05 UT using Find_Orb

Click here for an explanation of pseudo-MPECs

 
 Astrometry: 
     CD8FW32*1C2025 04 24.44372115 57 29.779+14 26 36.92   ~4OBV       VNEOCPG96
     CD8FW32 1C2025 04 24.44941215 57 36.040+14 27 56.20   ~4OBV 19.98GVNEOCPG96
     CD8FW32 1C2025 04 24.45507615 57 42.383+14 29 16.48   ~4OBV 20.63GVNEOCPG96
     CD8FW32 1C2025 04 24.46074915 57 48.805+14 30 35.96   ~4OBV 20.56GVNEOCPG96
     CD8FW32 KC2025 04 24.47342715 58 03.644+14 33 35.71   ~4OBl 20.06GVNEOCPI52
     CD8FW32 KC2025 04 24.47418315 58 04.555+14 33 46.62   ~4OBl 20.10GVNEOCPI52
     CD8FW32  C2025 04 24.47491615 58 02.035+14 33 11.60   ~4OC2 20.0 GWNEOCPH01
     CD8FW32 KC2025 04 24.47493815 58 05.459+14 33 57.38   ~4OBl 20.28GVNEOCPI52
     CD8FW32 KC2025 04 24.47863115 58 06.626+14 34 04.66   ~4OC2 20.2 GWNEOCPH01

Station data:
(G96) Mt. Lemmon Survey  (N32.442729 W110.788720)  US/Arizona.  Observer E.
   J. Christensen.  + 10K CCD.
(H01) Magdalena Ridge Observatory, Socorro  (N33.984833 W107.189333)  US/New
   Mexico.  Observers W. H. Ryan, E. V. Ryan. Measurer W. H. Ryan. 2.4-m
   f/8.9 reflector + CCD.
(I52) Steward Observatory, Mt. Lemmon Station  (N32.442570 W110.788920)
   US/Arizona.  Observers T. A. Pruyne, B. M. Africano, E. J. Christensen, G.
   A. Farneth, D. C. Fuls, A. R. Gibbs, A. D. Grauer, H. Gröller, J. A.
   Johnson, R. A. Kowalski, S. M. Larson, G. J. Leonard, D. Rankin, R. L.
   Seaman, F. C. Shelly, K. W. Wierzchoś. 1.0-m prime focus + CCD.

Orbital elements:  CD8FW32
   Perihelion 2025 Jul 14.28135 +/- 2.56 TT =  6:45:08 (JD 2460870.78135)
Epoch 2025 Apr 24.0 TT = JDT 2460789.5   Earth MOID: 0.0009   Ve: 0.0344
M 277.55926683 +/- 2.7              (J2000 ecliptic)             AutoNEOCP
n   1.01426388 +/- 0.00225          Peri.  290.01634 +/- 0.8
a   0.98107469 +/- 0.00145          Node    35.62959 +/- 0.21
e   0.2589735 +/- 0.029             Incl.    8.57629 +/- 1.3
P   0.972/354.931d         H 29.95  G  0.15   U  8.7
q 0.72700234 +/- 0.0274    Q 1.23514704 +/- 0.0302
From 9 observations 2025 Apr. 24 (50.3 min); mean residual 0".21
Residuals in arcseconds: 
250424 G96  .09+  .18-    250424 G96  .31-  .16+    250424 H01  .19-  .14-    
250424 G96  .02+  .29-    250424 I52  .08-  .14-    250424 I52  .05+  .06-    
250424 G96  .12+  .59+    250424 I52  .04+  .03-    250424 H01  .24+  .13+    

Ephemerides (geocentric):
Date (UTC) HH   RA             Dec           delta  r     elong  mag " sig PA
---- --------  ------------   ------------  ------ ------ -----  --- --------
2025 04 29 13  03 28 52.998   -09 47 47.86  .02087 .98890  28.8 30?? 4492 124
2025 04 29 14  03 28 58.807   -09 48 45.68  .02109 .98872  28.8 30?? 4466 124
2025 04 29 15  03 29 04.490   -09 49 42.20  .02131 .98854  28.8 30?? 4440 124
2025 04 29 16  03 29 10.052   -09 50 37.45  .02154 .98836  28.8 30?? 4414 124
2025 04 29 17  03 29 15.495   -09 51 31.47  .02176 .98818  28.8 30?? 4389 124
2025 04 29 18  03 29 20.824   -09 52 24.31  .02198 .98800  28.8 30?? 4365 124
2025 04 29 19  03 29 26.042   -09 53 15.99  .02220 .98782  28.9 30?? 4341 124
2025 04 29 20  03 29 31.152   -09 54 06.54  .02242 .98764  28.9 30?? 4318 124
2025 04 29 21  03 29 36.156   -09 54 56.00  .02264 .98746  28.9 30?? 4295 124
2025 04 29 22  03 29 41.059   -09 55 44.41  .02287 .98728  28.9 30?? 4272 124
2025 04 29 23  03 29 45.863   -09 56 31.78  .02309 .98710  28.9 30?? 4250 124
2025 04 30 00  03 29 50.571   -09 57 18.14  .02331 .98692  28.9 30?? 4229 124
2025 04 30 01  03 29 55.185   -09 58 03.53  .02353 .98674  28.9 30?? 4208 124
2025 04 30 02  03 29 59.708   -09 58 47.97  .02375 .98656  28.9 30?? 4187 124
2025 04 30 03  03 30 04.142   -09 59 31.49  .02398 .98638  29.0 30?? 4167 124
2025 04 30 04  03 30 08.489   -10 00 14.10  .02420 .98620  29.0 30?? 4147 124
2025 04 30 05  03 30 12.753   -10 00 55.84  .02442 .98602  29.0 30?? 4128 124
2025 04 30 06  03 30 16.935   -10 01 36.73  .02464 .98584  29.0 30?? 4109 124
2025 04 30 07  03 30 21.038   -10 02 16.78  .02486 .98566  29.0 30?? 4090 124
2025 04 30 08  03 30 25.062   -10 02 56.02  .02508 .98548  29.0 30?? 4071 124
2025 04 30 09  03 30 29.011   -10 03 34.47  .02531 .98530  29.0 30?? 4053 124
2025 04 30 10  03 30 32.886   -10 04 12.14  .02553 .98511  29.0 30?? 4036 124
2025 04 30 11  03 30 36.690   -10 04 49.07  .02575 .98493  29.0 30?? 4018 124
2025 04 30 12  03 30 40.423   -10 05 25.25  .02597 .98475  29.0 30?? 4001 124
2025 04 30 13  03 30 44.088   -10 06 00.72  .02619 .98457  29.0 30?? 3984 124
2025 04 30 14  03 30 47.686   -10 06 35.49  .02642 .98439  29.0 30?? 3968 124
2025 04 30 15  03 30 51.219   -10 07 09.58  .02664 .98421  29.1 30?? 3952 124
2025 04 30 16  03 30 54.688   -10 07 43.00  .02686 .98403  29.1 30?? 3936 124
2025 04 30 17  03 30 58.095   -10 08 15.76  .02708 .98385  29.1 30?? 3920 124
2025 04 30 18  03 31 01.442   -10 08 47.89  .02730 .98367  29.1 30?? 3905 124
2025 04 30 19  03 31 04.729   -10 09 19.40  .02753 .98349  29.1 30?? 3890 124
2025 04 30 20  03 31 07.959   -10 09 50.29  .02775 .98331  29.1 30?? 3875 124
2025 04 30 21  03 31 11.132   -10 10 20.59  .02797 .98313  29.1 30?? 3860 124
2025 04 30 22  03 31 14.250   -10 10 50.30  .02819 .98295  29.1 30?? 3846 124
2025 04 30 23  03 31 17.314   -10 11 19.45  .02842 .98276  29.1 30?? 3832 124
2025 05 01 00  03 31 20.325   -10 11 48.03  .02864 .98258  29.1 30?? 3818 124
2025 05 01 01  03 31 23.285   -10 12 16.07  .02886 .98240  29.1 30?? 3804 124
2025 05 01 02  03 31 26.194   -10 12 43.57  .02908 .98222  29.1 30?? 3791 124
2025 05 01 03  03 31 29.054   -10 13 10.55  .02930 .98204  29.1 30?? 3778 124
2025 05 01 04  03 31 31.865   -10 13 37.02  .02953 .98186  29.1 30?? 3765 124
2025 05 01 05  03 31 34.629   -10 14 02.98  .02975 .98168  29.1 30?? 3752 124
2025 05 01 06  03 31 37.347   -10 14 28.45  .02997 .98150  29.1 30?? 3739 124
2025 05 01 07  03 31 40.020   -10 14 53.44  .03019 .98131  29.1 30?? 3727 124
2025 05 01 08  03 31 42.648   -10 15 17.96  .03042 .98113  29.1 30?? 3714 124
2025 05 01 09  03 31 45.233   -10 15 42.01  .03064 .98095  29.1 30?? 3702 124
2025 05 01 10  03 31 47.775   -10 16 05.60  .03086 .98077  29.1 30?? 3690 124
2025 05 01 11  03 31 50.276   -10 16 28.75  .03108 .98059  29.1 30?? 3679 124
2025 05 01 12  03 31 52.736   -10 16 51.46  .03130 .98041  29.1 30?? 3667 124